COOK73 VAAU-OYSQ

Flight info

Callsign COOK73
Flight time 3h 13m
Altitude 32000
Route DCT
Aircraft C25C/M-SDE2E3FGHRWXY/LB1

Departure

Time 2026-05-06 17:20
Airport Aurangabad Airport (VAAU)

Arrival

Time 2026-05-06 20:33
Airport Socotra Airport (OYSQ)
Time Latitude Longitude Altitude Speed Heading
2026-05-06 17:19 19.84195 75.32682 5404 ft 219 kts 258°
2026-05-06 17:20 19.83786 75.31120 6275 ft 226 kts 257°
2026-05-06 17:20 19.83362 75.29511 7169 ft 227 kts 257°
2026-05-06 17:20 19.82939 75.27884 8079 ft 230 kts 257°
2026-05-06 17:20 19.82512 75.26238 8978 ft 233 kts 256°
2026-05-06 17:21 19.82079 75.24574 9861 ft 235 kts 255°
2026-05-06 17:21 19.81642 75.22894 10699 ft 237 kts 255°
2026-05-06 17:21 19.81200 75.21199 11521 ft 239 kts 255°
2026-05-06 17:21 19.80756 75.19491 12339 ft 241 kts 255°
2026-05-06 17:22 19.80307 75.17770 13159 ft 243 kts 255°
2026-05-06 17:22 19.79856 75.16034 13935 ft 245 kts 255°
2026-05-06 17:22 19.79396 75.14281 14635 ft 248 kts 255°
2026-05-06 17:22 19.78937 75.12513 15350 ft 249 kts 255°
2026-05-06 17:23 19.78469 75.10726 16050 ft 253 kts 256°
2026-05-06 17:23 19.77999 75.08921 16744 ft 255 kts 256°
2026-05-06 17:23 19.77521 75.07093 17433 ft 258 kts 256°
2026-05-06 17:23 19.77037 75.05240 18071 ft 264 kts 255°
2026-05-06 17:24 19.76544 75.03358 18674 ft 265 kts 256°
2026-05-06 17:24 19.76053 75.01479 19313 ft 264 kts 257°
2026-05-06 17:24 19.75560 74.99598 19950 ft 264 kts 257°
2026-05-06 17:24 19.75069 74.97719 20586 ft 264 kts 258°
2026-05-06 17:25 19.74576 74.95840 21210 ft 264 kts 258°
2026-05-06 17:25 19.74084 74.93958 21830 ft 265 kts 258°
2026-05-06 17:25 19.73596 74.92100 22433 ft 265 kts 259°
2026-05-06 17:25 19.73100 74.90211 23024 ft 266 kts 259°
2026-05-06 17:26 19.72604 74.88318 23582 ft 267 kts 259°
2026-05-06 17:26 19.72104 74.86412 24015 ft 269 kts 259°
2026-05-06 17:26 19.71598 74.84486 24455 ft 272 kts 259°
2026-05-06 17:26 19.71088 74.82546 24887 ft 275 kts 259°
2026-05-06 17:27 19.70572 74.80583 25330 ft 277 kts 259°
2026-05-06 17:27 19.70052 74.78605 25764 ft 280 kts 259°
2026-05-06 17:27 19.69525 74.76607 26199 ft 283 kts 258°
2026-05-06 17:27 19.68995 74.74588 26630 ft 285 kts 258°
2026-05-06 17:28 19.68457 74.72554 27056 ft 288 kts 258°
2026-05-06 17:28 19.67915 74.70493 27483 ft 291 kts 258°
2026-05-06 17:28 19.67367 74.68414 27904 ft 294 kts 258°
2026-05-06 17:28 19.66814 74.66322 28349 ft 295 kts 258°
2026-05-06 17:29 19.66259 74.64222 28847 ft 295 kts 258°
2026-05-06 17:29 19.65706 74.62124 29341 ft 295 kts 258°
2026-05-06 17:29 19.65151 74.60027 29833 ft 295 kts 258°
2026-05-06 17:29 19.64597 74.57932 30265 ft 295 kts 257°
2026-05-06 17:30 19.64043 74.55837 30692 ft 295 kts 257°
2026-05-06 17:30 19.63490 74.53745 31114 ft 294 kts 257°
2026-05-06 17:30 19.62943 74.51681 31539 ft 294 kts 257°
2026-05-06 17:30 19.62385 74.49575 31803 ft 300 kts 257°
2026-05-06 17:31 19.61811 74.47398 31856 ft 313 kts 257°
2026-05-06 17:31 19.61207 74.45124 31868 ft 327 kts 257°
2026-05-06 17:31 19.60580 74.42762 31869 ft 340 kts 256°
2026-05-06 17:31 19.59929 74.40309 31871 ft 351 kts 257°
2026-05-06 17:32 19.59254 74.37774 31872 ft 363 kts 256°
2026-05-06 17:32 19.57849 74.32484 31874 ft 382 kts 256°
2026-05-06 17:33 19.57056 74.26853 31882 ft 394 kts 273°
2026-05-06 17:33 19.57871 74.21036 31879 ft 406 kts 274°
2026-05-06 17:34 19.57400 74.15037 31885 ft 418 kts 260°
2026-05-06 17:34 19.55785 74.09055 31890 ft 426 kts 255°
2026-05-06 17:35 19.54184 74.03018 31889 ft 424 kts 256°
2026-05-06 17:35 19.52551 73.97006 31891 ft 424 kts 256°
2026-05-06 17:36 19.50112 73.87973 31888 ft 425 kts 256°
2026-05-06 17:36 19.48475 73.81944 31888 ft 425 kts 256°
2026-05-06 17:37 19.46841 73.75915 31884 ft 426 kts 256°
2026-05-06 17:37 19.45199 73.69885 31881 ft 426 kts 256°
2026-05-06 17:38 19.43559 73.63849 31872 ft 427 kts 256°
2026-05-06 17:38 19.41910 73.57803 31866 ft 427 kts 256°
2026-05-06 17:39 19.40270 73.51789 31861 ft 428 kts 256°
2026-05-06 17:39 19.38616 73.45736 31854 ft 428 kts 256°
2026-05-06 17:40 19.36957 73.39678 31845 ft 428 kts 255°
2026-05-06 17:40 19.35295 73.33618 31842 ft 429 kts 255°
2026-05-06 17:41 19.33632 73.27558 31834 ft 429 kts 255°
2026-05-06 17:41 19.31964 73.21490 31829 ft 429 kts 255°
2026-05-06 17:42 19.30294 73.15417 31820 ft 429 kts 255°
2026-05-06 17:42 19.28621 73.09345 31816 ft 430 kts 255°
2026-05-06 17:43 19.26944 73.03272 31807 ft 430 kts 255°
2026-05-06 17:43 19.25264 72.97193 31805 ft 430 kts 255°
2026-05-06 17:44 19.23591 72.91156 31804 ft 431 kts 255°
2026-05-06 17:44 19.21907 72.85078 31804 ft 431 kts 255°
2026-05-06 17:45 19.20217 72.78991 31801 ft 431 kts 255°
2026-05-06 17:45 19.18526 72.72904 31798 ft 431 kts 255°
2026-05-06 17:46 19.16833 72.66817 31798 ft 431 kts 255°
2026-05-06 17:46 19.15135 72.60725 31796 ft 432 kts 255°
2026-05-06 17:47 19.13436 72.54639 31796 ft 432 kts 255°
2026-05-06 17:47 19.11733 72.48549 31795 ft 432 kts 255°
2026-05-06 17:48 19.10026 72.42451 31795 ft 432 kts 255°
2026-05-06 17:48 19.08319 72.36362 31796 ft 432 kts 255°
2026-05-06 17:49 19.06609 72.30266 31798 ft 432 kts 255°
2026-05-06 17:49 19.04897 72.24173 31800 ft 432 kts 255°
2026-05-06 17:50 19.03184 72.18081 31799 ft 433 kts 255°
2026-05-06 17:50 19.01476 72.12021 31799 ft 433 kts 255°
2026-05-06 17:51 18.99751 72.05914 31797 ft 433 kts 255°
2026-05-06 17:51 18.98026 71.99810 31798 ft 433 kts 255°
2026-05-06 17:52 18.96298 71.93708 31798 ft 434 kts 255°
2026-05-06 17:52 18.94569 71.87604 31797 ft 434 kts 255°
2026-05-06 17:53 18.92851 71.81543 31801 ft 434 kts 255°
2026-05-06 17:53 18.91115 71.75433 31797 ft 434 kts 255°
2026-05-06 17:54 18.89377 71.69325 31798 ft 434 kts 255°
2026-05-06 17:54 18.87635 71.63213 31797 ft 434 kts 255°
2026-05-06 17:55 18.85890 71.57093 31793 ft 435 kts 255°
2026-05-06 17:55 18.84156 71.51027 31794 ft 435 kts 255°
2026-05-06 17:56 18.82407 71.44912 31798 ft 435 kts 255°
2026-05-06 17:56 18.80655 71.38794 31794 ft 435 kts 255°
2026-05-06 17:57 18.78901 71.32679 31791 ft 435 kts 255°
2026-05-06 17:57 18.77144 71.26561 31791 ft 436 kts 255°
2026-05-06 17:58 18.75384 71.20442 31792 ft 436 kts 255°
2026-05-06 17:58 18.73621 71.14322 31791 ft 436 kts 255°
2026-05-06 17:59 18.71856 71.08200 31797 ft 436 kts 255°
2026-05-06 17:59 18.70088 71.02077 31795 ft 436 kts 255°
2026-05-06 18:00 18.68316 70.95951 31800 ft 436 kts 255°
2026-05-06 18:00 18.66555 70.89866 31802 ft 436 kts 254°
2026-05-06 18:01 18.64780 70.83744 31802 ft 437 kts 255°
2026-05-06 18:01 18.63003 70.77621 31805 ft 437 kts 254°
2026-05-06 18:02 18.61223 70.71498 31808 ft 437 kts 255°
2026-05-06 18:02 18.59741 70.66404 31806 ft 437 kts 255°
2026-05-06 18:03 18.57955 70.60274 31804 ft 437 kts 254°
2026-05-06 18:03 18.55876 70.53149 31811 ft 438 kts 255°
2026-05-06 18:04 18.54375 70.48014 31809 ft 438 kts 254°
2026-05-06 18:04 18.52581 70.41881 31811 ft 438 kts 254°
2026-05-06 18:05 18.50785 70.35749 31809 ft 438 kts 254°
2026-05-06 18:05 18.48985 70.29613 31810 ft 438 kts 254°
2026-05-06 18:06 18.47195 70.23515 31814 ft 439 kts 254°
2026-05-06 18:06 18.45388 70.17371 31807 ft 439 kts 254°
2026-05-06 18:07 18.43578 70.11225 31814 ft 439 kts 254°
2026-05-06 18:07 18.41768 70.05080 31813 ft 439 kts 254°
2026-05-06 18:08 18.39953 69.98937 31810 ft 440 kts 254°
2026-05-06 18:08 18.38135 69.92785 31817 ft 440 kts 254°
2026-05-06 18:09 18.36315 69.86637 31812 ft 440 kts 254°
2026-05-06 18:09 18.34492 69.80484 31824 ft 440 kts 254°
2026-05-06 18:10 18.32665 69.74329 31821 ft 441 kts 254°
2026-05-06 18:10 18.30836 69.68172 31823 ft 441 kts 254°
2026-05-06 18:11 18.29016 69.62055 31817 ft 441 kts 254°
2026-05-06 18:11 18.27180 69.55891 31824 ft 441 kts 254°
2026-05-06 18:12 18.25340 69.49722 31822 ft 442 kts 253°
2026-05-06 18:12 18.23500 69.43561 31824 ft 442 kts 253°
2026-05-06 18:13 18.21655 69.37392 31825 ft 442 kts 253°
2026-05-06 18:13 18.19809 69.31228 31830 ft 442 kts 253°
2026-05-06 18:14 18.17960 69.25059 31824 ft 442 kts 253°
2026-05-06 18:14 18.16105 69.18882 31833 ft 443 kts 253°
2026-05-06 18:15 18.14250 69.12708 31832 ft 443 kts 253°
2026-05-06 18:15 18.12405 69.06577 31823 ft 443 kts 253°
2026-05-06 18:16 18.10543 69.00398 31829 ft 443 kts 253°
2026-05-06 18:16 18.08677 68.94214 31836 ft 444 kts 253°
2026-05-06 18:17 18.06810 68.88034 31831 ft 444 kts 253°
2026-05-06 18:17 18.04941 68.81855 31837 ft 444 kts 253°
2026-05-06 18:18 18.03066 68.75667 31837 ft 444 kts 253°
2026-05-06 18:18 18.01191 68.69480 31839 ft 444 kts 253°
2026-05-06 18:19 17.99322 68.63327 31841 ft 445 kts 253°
2026-05-06 18:19 17.97428 68.57097 31837 ft 445 kts 253°
2026-05-06 18:20 17.95558 68.50954 31839 ft 445 kts 253°
2026-05-06 18:20 17.93672 68.44766 31836 ft 445 kts 253°
2026-05-06 18:21 17.91784 68.38577 31836 ft 445 kts 253°
2026-05-06 18:21 17.89892 68.32384 31841 ft 445 kts 253°
2026-05-06 18:22 17.87999 68.26198 31841 ft 445 kts 253°
2026-05-06 18:22 17.86103 68.20008 31846 ft 445 kts 253°
2026-05-06 18:23 17.84203 68.13814 31845 ft 445 kts 253°
2026-05-06 18:23 17.82302 68.07621 31845 ft 446 kts 253°
2026-05-06 18:24 17.80400 68.01434 31847 ft 446 kts 252°
2026-05-06 18:24 17.78493 67.95239 31842 ft 446 kts 253°
2026-05-06 18:25 17.76585 67.89047 31848 ft 446 kts 252°
2026-05-06 18:25 17.74674 67.82855 31847 ft 446 kts 252°
2026-05-06 18:26 17.72760 67.76660 31849 ft 446 kts 252°
2026-05-06 18:26 17.70859 67.70515 31847 ft 446 kts 252°
2026-05-06 18:27 17.68942 67.64324 31849 ft 446 kts 252°
2026-05-06 18:27 17.67023 67.58135 31849 ft 446 kts 252°
2026-05-06 18:28 17.65102 67.51950 31854 ft 446 kts 252°
2026-05-06 18:28 17.63178 67.45761 31853 ft 446 kts 252°
2026-05-06 18:29 17.61252 67.39572 31852 ft 447 kts 252°
2026-05-06 18:29 17.59324 67.33388 31853 ft 447 kts 252°
2026-05-06 18:30 17.57395 67.27201 31857 ft 446 kts 252°
2026-05-06 18:30 17.55463 67.21017 31857 ft 446 kts 252°
2026-05-06 18:31 17.53529 67.14829 31856 ft 447 kts 252°
2026-05-06 18:31 17.51591 67.08643 31856 ft 447 kts 252°
2026-05-06 18:32 17.49652 67.02460 31859 ft 447 kts 252°
2026-05-06 18:32 17.47712 66.96279 31859 ft 447 kts 252°
2026-05-06 18:33 17.45770 66.90100 31863 ft 447 kts 252°
2026-05-06 18:33 17.43829 66.83927 31864 ft 446 kts 252°
2026-05-06 18:34 17.41885 66.77753 31866 ft 446 kts 252°
2026-05-06 18:34 17.39938 66.71583 31865 ft 446 kts 252°
2026-05-06 18:35 17.37990 66.65414 31864 ft 446 kts 252°
2026-05-06 18:35 17.36054 66.59293 31864 ft 446 kts 252°
2026-05-06 18:36 17.34104 66.53129 31867 ft 446 kts 252°
2026-05-06 18:36 17.32153 66.46970 31867 ft 446 kts 252°
2026-05-06 18:37 17.30527 66.41844 31868 ft 446 kts 252°
2026-05-06 18:37 17.28244 66.34656 31865 ft 445 kts 252°
2026-05-06 18:38 17.26291 66.28513 31867 ft 445 kts 252°
2026-05-06 18:38 17.24336 66.22372 31865 ft 445 kts 252°
2026-05-06 18:39 17.22380 66.16236 31864 ft 444 kts 252°
2026-05-06 18:40 17.19447 66.07048 31866 ft 444 kts 252°
2026-05-06 18:40 17.17490 66.00926 31868 ft 443 kts 252°
2026-05-06 18:41 17.15534 65.94811 31865 ft 443 kts 252°
2026-05-06 18:41 17.13588 65.88740 31870 ft 443 kts 252°
2026-05-06 18:42 17.11630 65.82637 31869 ft 443 kts 252°
2026-05-06 18:42 17.09673 65.76541 31869 ft 442 kts 252°
2026-05-06 18:43 17.07714 65.70446 31870 ft 442 kts 252°
2026-05-06 18:43 17.05754 65.64355 31873 ft 442 kts 252°
2026-05-06 18:44 17.03793 65.58268 31872 ft 442 kts 252°
2026-05-06 18:44 17.01827 65.52177 31870 ft 442 kts 252°
2026-05-06 18:45 16.99864 65.46100 31870 ft 442 kts 252°
2026-05-06 18:45 16.97899 65.40023 31871 ft 441 kts 252°
2026-05-06 18:46 16.95934 65.33952 31869 ft 441 kts 252°
2026-05-06 18:46 16.93965 65.27873 31873 ft 441 kts 252°
2026-05-06 18:47 16.91997 65.21804 31873 ft 441 kts 252°
2026-05-06 18:47 16.90028 65.15738 31874 ft 441 kts 252°
2026-05-06 18:48 16.88056 65.09675 31872 ft 441 kts 252°
2026-05-06 18:48 16.86087 65.03628 31873 ft 441 kts 252°
2026-05-06 18:49 16.84120 64.97594 31872 ft 441 kts 252°
2026-05-06 18:49 16.82145 64.91540 31873 ft 440 kts 252°
2026-05-06 18:50 16.80169 64.85488 31873 ft 440 kts 252°
2026-05-06 18:50 16.78191 64.79436 31873 ft 440 kts 252°
2026-05-06 18:51 16.76214 64.73394 31874 ft 440 kts 252°
2026-05-06 18:51 16.74567 64.68368 31872 ft 440 kts 252°
2026-05-06 18:52 16.72584 64.62320 31872 ft 440 kts 252°
2026-05-06 18:52 16.70603 64.56284 31870 ft 440 kts 251°
2026-05-06 18:53 16.68619 64.50250 31874 ft 440 kts 251°
2026-05-06 18:53 16.66630 64.44207 31875 ft 440 kts 251°
2026-05-06 18:54 16.64641 64.38170 31875 ft 440 kts 251°
2026-05-06 18:54 16.62653 64.32141 31876 ft 440 kts 251°
2026-05-06 18:55 16.60676 64.26151 31875 ft 440 kts 252°
2026-05-06 18:55 16.58673 64.20085 31873 ft 440 kts 251°
2026-05-06 18:56 16.56678 64.14055 31873 ft 440 kts 251°
2026-05-06 18:56 16.54696 64.08070 31872 ft 440 kts 251°
2026-05-06 18:57 16.52698 64.02044 31872 ft 440 kts 251°
2026-05-06 18:57 16.50697 63.96019 31872 ft 440 kts 251°
2026-05-06 18:58 16.48697 63.89999 31871 ft 440 kts 251°
2026-05-06 18:58 16.46693 63.83975 31873 ft 439 kts 251°
2026-05-06 18:59 16.44692 63.77962 31870 ft 439 kts 251°
2026-05-06 18:59 16.42686 63.71941 31873 ft 439 kts 251°
2026-05-06 19:00 16.40681 63.65929 31870 ft 439 kts 251°
2026-05-06 19:00 16.38673 63.59918 31868 ft 439 kts 251°
2026-05-06 19:01 16.36677 63.53950 31868 ft 439 kts 251°
2026-05-06 19:01 16.34663 63.47937 31874 ft 439 kts 251°
2026-05-06 19:02 16.32651 63.41931 31875 ft 439 kts 251°
2026-05-06 19:02 16.30637 63.35926 31871 ft 439 kts 251°
2026-05-06 19:03 16.28622 63.29924 31874 ft 439 kts 251°
2026-05-06 19:03 16.26603 63.23913 31872 ft 439 kts 251°
2026-05-06 19:04 16.24585 63.17913 31871 ft 439 kts 251°
2026-05-06 19:04 16.22563 63.11911 31872 ft 440 kts 251°
2026-05-06 19:05 16.20537 63.05905 31869 ft 440 kts 251°
2026-05-06 19:05 16.18511 62.99905 31871 ft 440 kts 251°
2026-05-06 19:06 16.16495 62.93938 31871 ft 440 kts 251°
2026-05-06 19:06 16.14466 62.87939 31872 ft 440 kts 251°
2026-05-06 19:07 16.12435 62.81937 31869 ft 440 kts 251°
2026-05-06 19:07 16.10403 62.75938 31870 ft 440 kts 251°
2026-05-06 19:08 16.08368 62.69940 31871 ft 440 kts 251°
2026-05-06 19:08 16.06331 62.63942 31871 ft 440 kts 251°
2026-05-06 19:09 16.04291 62.57945 31871 ft 440 kts 251°
2026-05-06 19:09 16.02249 62.51945 31874 ft 440 kts 251°
2026-05-06 19:10 16.00206 62.45949 31872 ft 440 kts 251°
2026-05-06 19:10 15.98163 62.39956 31869 ft 440 kts 251°
2026-05-06 19:11 15.96117 62.33961 31873 ft 440 kts 251°
2026-05-06 19:11 15.94069 62.27966 31870 ft 440 kts 251°
2026-05-06 19:12 15.92020 62.21972 31871 ft 440 kts 251°
2026-05-06 19:12 15.89968 62.15979 31871 ft 440 kts 251°
2026-05-06 19:13 15.87913 62.09987 31869 ft 440 kts 251°
2026-05-06 19:13 15.85856 62.03992 31870 ft 440 kts 251°
2026-05-06 19:14 15.83812 61.98041 31869 ft 440 kts 251°
2026-05-06 19:14 15.81752 61.92050 31869 ft 440 kts 251°
2026-05-06 19:15 15.79693 61.86063 31871 ft 441 kts 251°
2026-05-06 19:15 15.77631 61.80072 31873 ft 441 kts 251°
2026-05-06 19:16 15.75566 61.74083 31870 ft 441 kts 250°
2026-05-06 19:16 15.73499 61.68094 31874 ft 441 kts 250°
2026-05-06 19:17 15.71429 61.62105 31874 ft 441 kts 250°
2026-05-06 19:17 15.69357 61.56118 31872 ft 441 kts 250°
2026-05-06 19:18 15.67285 61.50131 31873 ft 441 kts 250°
2026-05-06 19:18 15.65210 61.44144 31874 ft 441 kts 250°
2026-05-06 19:19 15.63136 61.38161 31873 ft 441 kts 250°
2026-05-06 19:19 15.61059 61.32176 31874 ft 441 kts 250°
2026-05-06 19:20 15.58979 61.26189 31871 ft 441 kts 250°
2026-05-06 19:20 15.56909 61.20241 31872 ft 441 kts 250°
2026-05-06 19:21 15.54826 61.14259 31871 ft 441 kts 250°
2026-05-06 19:21 15.52741 61.08281 31871 ft 441 kts 250°
2026-05-06 19:22 15.50654 61.02300 31870 ft 441 kts 250°
2026-05-06 19:22 15.48567 60.96323 31871 ft 441 kts 250°
2026-05-06 19:23 15.46478 60.90344 31871 ft 441 kts 250°
2026-05-06 19:23 15.44387 60.84366 31871 ft 441 kts 250°
2026-05-06 19:24 15.42294 60.78389 31870 ft 441 kts 250°
2026-05-06 19:24 15.40195 60.72402 31870 ft 441 kts 250°
2026-05-06 19:25 15.38096 60.66423 31873 ft 441 kts 250°
2026-05-06 19:25 15.35997 60.60448 31873 ft 441 kts 250°
2026-05-06 19:26 15.33908 60.54511 31872 ft 441 kts 250°
2026-05-06 19:26 15.31805 60.48533 31871 ft 441 kts 250°
2026-05-06 19:27 15.29701 60.42560 31872 ft 441 kts 250°
2026-05-06 19:27 15.27596 60.36587 31873 ft 441 kts 250°
2026-05-06 19:28 15.25489 60.30613 31872 ft 441 kts 250°
2026-05-06 19:28 15.23379 60.24643 31874 ft 441 kts 250°
2026-05-06 19:29 15.21269 60.18679 31874 ft 441 kts 250°
2026-05-06 19:29 15.19170 60.12749 31870 ft 441 kts 250°
2026-05-06 19:30 15.17057 60.06788 31870 ft 441 kts 250°
2026-05-06 19:30 15.14944 60.00828 31871 ft 441 kts 250°
2026-05-06 19:31 15.12830 59.94870 31870 ft 441 kts 250°
2026-05-06 19:31 15.09655 59.85936 31872 ft 441 kts 250°
2026-05-06 19:32 15.07536 59.79982 31871 ft 441 kts 250°
2026-05-06 19:32 15.05416 59.74025 31874 ft 441 kts 250°
2026-05-06 19:33 15.03309 59.68112 31874 ft 441 kts 250°
2026-05-06 19:33 15.01187 59.62163 31873 ft 441 kts 250°
2026-05-06 19:34 14.99064 59.56215 31875 ft 441 kts 250°
2026-05-06 19:34 14.96937 59.50267 31872 ft 441 kts 250°
2026-05-06 19:35 14.94810 59.44323 31873 ft 441 kts 250°
2026-05-06 19:35 14.92680 59.38377 31874 ft 441 kts 250°
2026-05-06 19:36 14.90548 59.32430 31872 ft 441 kts 250°
2026-05-06 19:36 14.88413 59.26477 31874 ft 441 kts 250°
2026-05-06 19:37 14.86277 59.20524 31874 ft 441 kts 250°
2026-05-06 19:37 14.84497 59.15574 31876 ft 441 kts 250°
2026-05-06 19:38 14.82013 59.08665 31874 ft 441 kts 249°
2026-05-06 19:38 14.79871 59.02716 31876 ft 441 kts 249°
2026-05-06 19:39 14.78089 58.97771 31874 ft 442 kts 249°
2026-05-06 19:39 14.75944 58.91826 31873 ft 442 kts 249°
2026-05-06 19:40 14.73798 58.85883 31872 ft 442 kts 249°
2026-05-06 19:40 14.71650 58.79938 31874 ft 442 kts 249°
2026-05-06 19:41 14.69500 58.73993 31874 ft 442 kts 249°
2026-05-06 19:41 14.67349 58.68049 31874 ft 442 kts 249°
2026-05-06 19:42 14.65197 58.62106 31873 ft 442 kts 249°
2026-05-06 19:42 14.63044 58.56167 31875 ft 442 kts 249°
2026-05-06 19:43 14.60887 58.50226 31876 ft 442 kts 249°
2026-05-06 19:43 14.58729 58.44284 31874 ft 442 kts 249°
2026-05-06 19:44 14.56569 58.38347 31874 ft 442 kts 249°
2026-05-06 19:44 14.54406 58.32405 31873 ft 442 kts 249°
2026-05-06 19:45 14.52242 58.26465 31873 ft 442 kts 249°
2026-05-06 19:45 14.50079 58.20524 31869 ft 442 kts 249°
2026-05-06 19:46 14.47913 58.14587 31867 ft 442 kts 249°
2026-05-06 19:46 14.45744 58.08649 31869 ft 442 kts 249°
2026-05-06 19:47 14.43574 58.02713 31867 ft 442 kts 249°
2026-05-06 19:47 14.41416 57.96818 31868 ft 442 kts 249°
2026-05-06 19:48 14.39243 57.90883 31868 ft 442 kts 249°
2026-05-06 19:48 14.37069 57.84950 31869 ft 442 kts 249°
2026-05-06 19:49 14.34893 57.79015 31868 ft 442 kts 249°
2026-05-06 19:49 14.32716 57.73082 31868 ft 443 kts 249°
2026-05-06 19:50 14.30535 57.67146 31867 ft 443 kts 249°
2026-05-06 19:50 14.28351 57.61210 31866 ft 443 kts 249°
2026-05-06 19:51 14.26164 57.55269 31866 ft 443 kts 249°
2026-05-06 19:51 14.23976 57.49332 31867 ft 443 kts 249°
2026-05-06 19:52 14.21786 57.43395 31869 ft 443 kts 249°
2026-05-06 19:52 14.19596 57.37457 31869 ft 443 kts 249°
2026-05-06 19:53 14.17402 57.31516 31865 ft 443 kts 249°
2026-05-06 19:53 14.15222 57.25616 31867 ft 443 kts 249°
2026-05-06 19:54 14.13024 57.19677 31863 ft 444 kts 249°
2026-05-06 19:54 14.10824 57.13739 31863 ft 444 kts 249°
2026-05-06 19:55 14.08623 57.07800 31865 ft 444 kts 249°
2026-05-06 19:55 14.06419 57.01860 31864 ft 444 kts 249°
2026-05-06 19:56 14.04213 56.95916 31864 ft 444 kts 249°
2026-05-06 19:56 14.02008 56.89978 31864 ft 444 kts 249°
2026-05-06 19:57 13.99799 56.84038 31864 ft 444 kts 249°
2026-05-06 19:57 13.97589 56.78100 31865 ft 444 kts 249°
2026-05-06 19:58 13.95374 56.72155 31866 ft 444 kts 249°
2026-05-06 19:58 13.93157 56.66210 31864 ft 445 kts 249°
2026-05-06 19:59 13.90955 56.60311 31864 ft 445 kts 249°
2026-05-06 19:59 13.88736 56.54369 31868 ft 445 kts 249°
2026-05-06 20:00 13.86514 56.48424 31860 ft 445 kts 249°
2026-05-06 20:00 13.84293 56.42482 31858 ft 445 kts 249°
2026-05-06 20:01 13.82067 56.36537 31862 ft 445 kts 249°
2026-05-06 20:01 13.79841 56.30596 31863 ft 445 kts 249°
2026-05-06 20:02 13.77613 56.24655 31862 ft 445 kts 249°
2026-05-06 20:02 13.75382 56.18715 31863 ft 445 kts 249°
2026-05-06 20:03 13.73150 56.12774 31864 ft 445 kts 249°
2026-05-06 20:03 13.70917 56.06833 31863 ft 445 kts 249°
2026-05-06 20:04 13.68682 56.00892 31862 ft 445 kts 249°
2026-05-06 20:04 13.66462 55.94994 31863 ft 445 kts 249°
2026-05-06 20:05 13.64224 55.89053 31864 ft 445 kts 249°
2026-05-06 20:05 13.61984 55.83117 31862 ft 446 kts 249°
2026-05-06 20:06 13.59742 55.77178 31863 ft 446 kts 249°
2026-05-06 20:06 13.57497 55.71239 31863 ft 446 kts 249°
2026-05-06 20:07 13.55250 55.65298 31864 ft 446 kts 249°
2026-05-06 20:07 13.53003 55.59357 31863 ft 446 kts 249°
2026-05-06 20:08 13.50756 55.53424 31862 ft 446 kts 249°
2026-05-06 20:08 13.48503 55.47478 31863 ft 446 kts 249°
2026-05-06 20:09 13.46252 55.41543 31862 ft 446 kts 249°
2026-05-06 20:09 13.43998 55.35606 31863 ft 446 kts 248°
2026-05-06 20:10 13.42879 55.32664 31504 ft 436 kts 249°
2026-05-06 20:10 13.41794 55.29803 30954 ft 424 kts 248°
2026-05-06 20:10 13.40744 55.27043 30407 ft 416 kts 248°
2026-05-06 20:10 13.39701 55.24302 29852 ft 409 kts 248°
2026-05-06 20:11 13.38677 55.21607 29292 ft 401 kts 248°
2026-05-06 20:11 13.37667 55.18956 28765 ft 395 kts 248°
2026-05-06 20:11 13.36674 55.16345 28249 ft 390 kts 248°
2026-05-06 20:11 13.35691 55.13766 27744 ft 386 kts 248°
2026-05-06 20:12 13.34718 55.11211 27266 ft 382 kts 248°
2026-05-06 20:12 13.33753 55.08678 26769 ft 380 kts 248°
2026-05-06 20:12 13.32792 55.06160 26272 ft 378 kts 248°
2026-05-06 20:12 13.31835 55.03647 25777 ft 377 kts 248°
2026-05-06 20:13 13.30879 55.01147 25285 ft 376 kts 248°
2026-05-06 20:13 13.29925 54.98643 24789 ft 376 kts 248°
2026-05-06 20:13 13.28969 54.96143 24294 ft 376 kts 248°
2026-05-06 20:13 13.28015 54.93643 23799 ft 376 kts 248°
2026-05-06 20:14 13.27061 54.91143 23279 ft 376 kts 248°
2026-05-06 20:14 13.26107 54.88649 22759 ft 374 kts 248°
2026-05-06 20:14 13.25173 54.86203 22269 ft 372 kts 248°
2026-05-06 20:14 13.24226 54.83733 21779 ft 370 kts 248°
2026-05-06 20:15 13.23289 54.81277 21293 ft 368 kts 248°
2026-05-06 20:15 13.22354 54.78836 20804 ft 367 kts 248°
2026-05-06 20:15 13.21421 54.76397 20329 ft 366 kts 248°
2026-05-06 20:15 13.20490 54.73968 19842 ft 366 kts 249°
2026-05-06 20:16 13.19560 54.71540 19369 ft 365 kts 248°
2026-05-06 20:16 13.18632 54.69115 18872 ft 365 kts 249°
2026-05-06 20:16 13.17702 54.66692 18399 ft 365 kts 249°
2026-05-06 20:16 13.16775 54.64269 17889 ft 364 kts 249°
2026-05-06 20:17 13.15847 54.61856 17390 ft 363 kts 249°
2026-05-06 20:17 13.14927 54.59450 16913 ft 361 kts 249°
2026-05-06 20:17 13.14005 54.57057 16437 ft 360 kts 249°
2026-05-06 20:17 13.13090 54.54663 15968 ft 360 kts 249°
2026-05-06 20:18 13.12171 54.52278 15492 ft 360 kts 249°
2026-05-06 20:18 13.11255 54.49887 15021 ft 360 kts 249°
2026-05-06 20:18 13.10333 54.47490 14544 ft 361 kts 249°
2026-05-06 20:18 13.09425 54.45127 14077 ft 362 kts 249°
2026-05-06 20:19 13.08506 54.42738 13596 ft 355 kts 249°
2026-05-06 20:19 13.07610 54.40414 13105 ft 344 kts 249°
2026-05-06 20:19 13.06745 54.38161 12690 ft 334 kts 249°
2026-05-06 20:19 13.05906 54.35986 12345 ft 323 kts 249°
2026-05-06 20:20 13.05090 54.33859 11936 ft 318 kts 250°
2026-05-06 20:20 13.04282 54.31768 11520 ft 313 kts 250°
2026-05-06 20:20 13.03490 54.29703 11111 ft 309 kts 250°
2026-05-06 20:20 13.02702 54.27666 10703 ft 306 kts 250°
2026-05-06 20:21 13.01927 54.25647 10304 ft 303 kts 250°
2026-05-06 20:21 13.01155 54.23649 9906 ft 300 kts 250°
2026-05-06 20:21 13.00393 54.21668 9493 ft 297 kts 250°
2026-05-06 20:21 12.99636 54.19708 9090 ft 294 kts 250°
2026-05-06 20:22 12.98889 54.17772 8708 ft 290 kts 250°
2026-05-06 20:22 12.98152 54.15857 8323 ft 288 kts 250°
2026-05-06 20:22 12.97416 54.13958 7949 ft 285 kts 249°
2026-05-06 20:22 12.96691 54.12070 7570 ft 283 kts 250°
2026-05-06 20:23 12.95966 54.10201 7198 ft 282 kts 249°
2026-05-06 20:23 12.95250 54.08338 6828 ft 280 kts 249°
2026-05-06 20:23 12.94357 54.06588 6447 ft 275 kts 230°
2026-05-06 20:23 12.92848 54.05444 6087 ft 266 kts 209°
2026-05-06 20:24 12.91193 54.04575 5492 ft 267 kts 206°
2026-05-06 20:24 12.89524 54.03791 5099 ft 261 kts 205°
2026-05-06 20:24 12.87909 54.02998 4747 ft 254 kts 206°
2026-05-06 20:24 12.86351 54.02215 4410 ft 243 kts 206°
2026-05-06 20:25 12.84873 54.01468 4092 ft 232 kts 205°
2026-05-06 20:25 12.83446 54.00753 3792 ft 226 kts 205°
2026-05-06 20:25 12.82051 54.00058 3500 ft 221 kts 205°
2026-05-06 20:25 12.80676 53.99369 3216 ft 219 kts 205°
2026-05-06 20:26 12.79332 53.98696 2926 ft 216 kts 205°
2026-05-06 20:26 12.78028 53.98045 2669 ft 196 kts 205°
2026-05-06 20:26 12.76879 53.97469 2410 ft 171 kts 205°
2026-05-06 20:26 12.75929 53.96990 2202 ft 134 kts 204°
2026-05-06 20:27 12.75145 53.96599 2022 ft 120 kts 205°
2026-05-06 20:27 12.74412 53.96234 1869 ft 115 kts 204°
2026-05-06 20:27 12.73705 53.95880 1719 ft 111 kts 204°
2026-05-06 20:27 12.73246 53.95654 1627 ft 110 kts 204°
2026-05-06 20:28 12.72565 53.95311 1487 ft 109 kts 205°
2026-05-06 20:28 12.71877 53.94967 1350 ft 111 kts 205°
2026-05-06 20:28 12.71174 53.94620 1209 ft 113 kts 205°
2026-05-06 20:28 12.70470 53.94265 1055 ft 112 kts 204°
2026-05-06 20:29 12.69773 53.93916 913 ft 111 kts 205°
2026-05-06 20:29 12.68849 53.93455 725 ft 112 kts 206°
2026-05-06 20:29 12.68369 53.93217 619 ft 114 kts 206°
2026-05-06 20:29 12.67671 53.92865 510 ft 109 kts 206°
2026-05-06 20:30 12.66986 53.92520 394 ft 108 kts 207°
2026-05-06 20:30 12.66203 53.92097 313 ft 105 kts 204°
2026-05-06 20:32 12.65706 53.91874 212 ft 107 kts 202°
2026-05-06 20:32 12.65026 53.91559 125 ft 107 kts 207°
2026-05-06 20:32 12.64380 53.91221 55 ft 101 kts 207°
2026-05-06 20:32 12.63814 53.90927 40 ft 70 kts 195°
2026-05-06 20:33 12.63571 53.90818 50 ft 28 kts 205°
2026-05-06 20:33 12.63405 53.90738 62 ft 25 kts 207°
2026-05-06 20:33 12.63263 53.90665 65 ft 20 kts 206°
2026-05-06 20:33 12.63145 53.90606 70 ft 17 kts 205°
2026-05-06 20:34 12.63048 53.90558 74 ft 14 kts 206°
2026-05-06 20:34 12.62968 53.90542 75 ft 11 kts 159°
2026-05-06 20:34 12.62926 53.90601 76 ft 11 kts 117°
2026-05-06 20:34 12.62892 53.90674 76 ft 12 kts 116°
2026-05-06 20:35 12.62867 53.90725 76 ft 8 kts 116°
2026-05-06 20:35 12.62833 53.90761 77 ft 6 kts 192°
2026-05-06 20:35 12.62795 53.90754 78 ft 5 kts 186°
2026-05-06 20:35 12.62775 53.90752 77 ft 0 kts 186°